Pagina principale
METAR-TAF:

METAR-TAF

Aeroporti :

Mariental, Namibia

latitudine: 24-36-20S, longitudine: 17-55-30E, altezza: 1113 m

Osservazione

Il bollettino è stato emesso 44 minuti fa, alle 13:00 UTC
Vento 6 kt da sud
Temperature 32°C
Umidità 14%
Pressione 1013 hPa

METAR: FYML 091300Z AUTO 17006KT //// // ////// 32/01 Q1013

Ora: 15:44 (13:44 UTC)


TAF: mancante

Osservazioni e previsioni meteorologiche di più di 4000 aeroporti (messaggi METAR e TAF).

Le stazioni disponibili sono rappresentate dai dischi gialli e rossi sulla carta.

Puntare il mouse per vedere il nome della stazione.

Clicca sopra per visualizzare le osservazioni e previsioni meteorologiche.

Per cambiare la mappa : fare clic sui pulsanti verdi con una croce nera per ingrandire, il pulsante verde con un trattino per diminuire, o sulla freccia verde per le mappe adiacenti.


METAR-TAF: